Location: Sungai Jaoh
(2.9167°N, 113.9167°E)
Time: 01:51:08
(UTC+00:00)

Envisat - Pass Details

Date: 27 September 2021
Orbit: 764 x 766 km, 98.2° (Epoch: 17 October)

Event Time Altitude Azimuth Distance (km) Brightness Sun altitude
Rises 21:15:44 0° 9° (N) 3,213 6.3 -14.9°
Reaches altitude 10° 21:18:01 10° 8° (N) 2,290 5.5 -14.4°
Maximum altitude 21:23:04 77° 283° (WNW) 784 2.9 -13.1°
Drops below altitude 10° 21:28:07 10° 196° (SSW) 2,297 5.3 -11.8°
Sets 21:30:26 0° 195° (SSW) 3,225 6.1 -11.3°
